Find Kuiper-00186

NORAD ID: 67140 Int'l Des: 2025-301 Owner: KUIP Country: US Constellation: amazon-leo operational
LEOCIRCULAR

現在のビュー

3D地球を読み込み中...

About Kuiper-00186

Kuiper-00186 (NORAD 67140) is a amazon-leo constellation satellite launched Dec 16, 2025 by KUIP of US. It operates in LEO, CIRCULAR orbit with a mass of 490.00 kg.

Kuiper-00186について

説明を読み込み中...

次回通過

Passes for default location (London). Set your location on the main map for personalized predictions.

高度履歴

Loading altitude history...

軌道要素

1 67140U 25301H 26170.21039955 .00001950 00000-0 28467-3 0 9994
2 67140 51.9030 349.2069 0000429 104.2498 255.8512 14.79936392 28599
Epoch: Jun 19, 2026 • Age: 17 hours

現在のステータス

高度 634.9 km
速度 7.55 km/s
衛星直下点 49.95°N, 135.93°W
打ち上げ日 Dec 16, 2025
運用期間 0.5 years
タイプ internet

技術仕様

分類 Payload
質量 490.00 kg
乾燥質量 490.00 kg
総質量 490.00 kg
長さ 1.80 m
直径 0.70 m
スパン 5.00 m
形状 Box + 2 pan
製造者 KUIP
バスタイプ Kuiper
フェーズステータス In Orbit
所有者/国 KUIP/US

Most Searched